Location: Gauravaram
(16.6995°N, 80.5417°E)
Time: 10:01:30
(UTC+00:00)

IRS-1D - Pass Details

Date: 03 August 2024
Orbit: 738 x 812 km, 98.8° (Epoch: 15 September)

Event Time Altitude Azimuth Distance (km) Brightness Sun altitude
Rises 22:36:58 0° 3° (N) 3,203 7.1 -23.4°
Reaches altitude 10° 22:39:18 10° 357° (N) 2,287 6.2 -22.9°
Maximum altitude 22:44:07 47° 285° (WNW) 1,009 3.8 -21.9°
Enters shadow 22:44:31 46° 270° (W) 1,025 3.7 -21.8°
